Regional Weather Roundup
Issued by NWS

Home | Current Version | Previous Version | Graphics & Text | Print | Product List | Glossary On
Versions: 1 2 3 4 5 6 7 8 9 10 11 12 13 14 15 16 17 18 19 20 21 22 23 24 25 26 27 28 29 30 31 32 33 34 35 36 37 38 39 40 41 42 43 44 45 46 47 48 49 50
000
ASUS43 KMKX 182300
RWRWI

WISCONSIN REGIONAL WEATHER ROUNDUP
NATIONAL WEATHER SERVICE MILWAUKEE/SULLIVAN WI
600 PM CDT FRI AUG 18 2017

NOTE: "FAIR" INDICATES FEW OR NO CLOUDS BELOW 12,000 FEET WITH NO
SIGNIFICANT WEATHER AND/OR OBSTRUCTIONS TO VISIBILITY.

WIZ001-002-006>008-014>016-023>028-190000-
NORTHWEST WISCONSIN

CITY           SKY/WX    TMP DP  RH WIND       PRES   REMARKS
SUPERIOR ARPT    N/A     73  66  79 SW8       29.84R
ASHLAND        CLOUDY    70  60  70 W5        29.84S
HAYWARD        CLOUDY    69  62  78 SW8       29.88R
SIREN          CLOUDY    68  61  77 W6        29.88S
CUMBERLAND     CLOUDY    68  63  83 W5        29.88S
RICE LAKE      CLOUDY    68  63  83 CALM      29.89S
CHETEK         CLOUDY    69  64  84 CALM      29.88R
LADYSMITH      CLOUDY    70  58  66 W6        29.89S
EAU CLAIRE     NOT AVBL
MENOMONIE      CLOUDY    69  63  79 W8        29.88S
NEW RICHMOND   CLOUDY    69  62  78 SW5       29.89S
OSCEOLA        CLOUDY    71  63  75 W3        29.91S
$$

WIZ003>005-009-010-017-018-190000-
NORTH CENTRAL WISCONSIN

CITY           SKY/WX    TMP DP  RH WIND       PRES   REMARKS
MANITOWISH WTR CLOUDY    68  57  67 N8        29.85F
ARBOR VITAE    CLOUDY    67  58  71 CALM      29.86R
WOODRUFF       CLOUDY    67  58  71 CALM      29.86R
RHINELANDER    LGT RAIN  67  57  70 NW7       29.87R
EAGLE RIVER    CLOUDY    65  53  64 NW6       29.85S
LAND O LAKES   CLOUDY    65  54  67 CALM      29.87S
PHILLIPS       CLOUDY    67  57  69 NW3       29.87R
TOMAHAWK         N/A     67  57  71 W5        29.86S
MEDFORD        CLOUDY    66  59  76 W7        29.87S
MERRILL        NOT AVBL
$$

WIZ029-030-035-036-043>047-190000-
CENTRAL WISCONSIN

CITY           SKY/WX    TMP DP  RH WIND       PRES   REMARKS
WAUSAU         CLOUDY    67  58  72 NW10      29.84S
MOSINEE        CLOUDY    66  59  77 NW7       29.87S
MARSHFIELD     CLOUDY    67  59  75 NW8       29.87R
STEVENS POINT  CLOUDY    67  60  78 W5        29.87R
WAUPACA        CLOUDY    72  60  64 NW5       29.85S
WAUTOMA        CLOUDY    71  60  68 NW7       29.87R
WISC RAPIDS    CLOUDY    69  61  75 W7        29.89R
CAMP DOUGLAS   DRIZZLE   68  62  82 W8        29.88R
$$

WIZ011>013-019>022-031-037>040-048>050-190000-
NORTHEAST WISCONSIN

CITY           SKY/WX    TMP DP  RH WIND       PRES   REMARKS
ANTIGO         CLOUDY    66  58  75 NW7       29.86R
SHAWANO        PTSUNNY   72  59  64 W9        29.83R
OCONTO         CLOUDY    71  60  67 NW3       29.80R
STURGEON BAY   PTSUNNY   69  61  75 NW5       29.82R
GREEN BAY      CLOUDY    70  62  76 W10       29.83R
MANITOWOC      NOT AVBL
APPLETON       CLOUDY    70  57  64 W10       29.84R
CLINTONVILLE   CLOUDY    70  57  64 W8        29.84R
OSHKOSH        PTSUNNY   71  60  68 NW12      29.85R
$$

WIZ032>034-041-042-053>061-190000-
SOUTHWEST WISCONSIN

CITY           SKY/WX    TMP DP  RH WIND       PRES   REMARKS
LA CROSSE      CLOUDY    73  64  73 N3        29.88F
SPARTA         CLOUDY    67  62  84 W6        29.91R
VIROQUA        CLOUDY    66  64  91 W3        29.92S
BOSCOBEL       CLOUDY    72  62  71 W3        29.90S
PRAIRIE DU CHI CLOUDY    71  58  63 NW6       29.90S
PLATTEVILLE    PTSUNNY   72  63  73 NW10      29.91R
$$

WIZ056-057-062-063-064-067-068-190000-
SOUTH CENTRAL WISCONSIN

CITY           SKY/WX    TMP DP  RH WIND       PRES   REMARKS
REEDSBURG      CLOUDY    70  60  69 W9        29.89R
BARABOO/DELLS  CLOUDY    70  57  63 NW7       29.89R
LONE ROCK      NOT AVBL
MINERAL POINT  CLOUDY    72  63  73 NW7       29.91S
MADISON        CLOUDY    72  59  63 NW7       29.87S
MIDDLETON      CLOUDY    73  59  62 W9        29.89R
WATERTOWN      CLOUDY    74  62  65 W8        29.86S
MONROE         PTSUNNY   73  59  60 NW10      29.89R
JANESVILLE     PTSUNNY   77  61  57 W8        29.86S
$$

WIZ051-052-058>065-066-070>072-190000-
SOUTHEAST WISCONSIN

CITY           SKY/WX    TMP DP  RH WIND       PRES   REMARKS
MILWAUKEE      MOSUNNY   79  59  50 W12       29.84S HX  80
WAUKESHA       MOSUNNY   73  59  60 W10       29.86S
MILWAUKEE/TIMM MOSUNNY   75  55  50 W10       29.85S
RACINE         MOSUNNY   76  62  62 NW9       29.86S
KENOSHA        PTSUNNY   76  62  62 W7        29.85S
FOND DU LAC    CLOUDY    73  59  61 NW9       29.85R
SHEBOYGAN      PTSUNNY   72  63  73 NW6       29.84R
WEST BEND      MOSUNNY   73  59  60 W8G20     29.85R
JUNEAU         CLOUDY    72  60  66 W8        29.87S
$$

LSZ147-162-190000-
LAKE SUPERIOR

STATION/POSITION TIME  TEMP    WIND        PRES    WAVE
                       AIR SEA DIR/SP/G            HT/PER
                 (UTC) (F)     (DEG/KT/KT) (MB)    (FT/S)
W MID LAKE BUOY  2150   61 60  260/ 14/ 16 1009.3R   2/ 3
DEVILS ISLAND    2200   65     230/  7/  9 1009.6F
SAXON HARBOR     2240   67     190/  1/  2 1010.2R
$$

LMZ867-665-643>646-190000-
LAKE MICHIGAN

STATION/POSITION TIME  TEMP    WIND        PRES    WAVE
                       AIR SEA DIR/SP/G            HT/PER
                 (UTC) (F)     (DEG/KT/KT) (MB)    (FT/S)
S GREEN BAY BUOY 2230   72 71  310/ 10/ 12 1009.2R
N MID LAKE BUOY  2150   66 67  310/ 14/ 16 1008.5F   2/ 4
NORTHPORT PIER   2240   67     320/ 17/ 24 1009.1R
KEWAUNEE LAKESHO 2230   71     280/  4/  8 1008.9R
SHEBOYGAN LAKESH 2200   73     290/ 14/ 16 1009.7R
PORT WASHINGTON  2240   77     280/  6/ 10 1010.8S
ATWATER BUOY     2139   74     280/ 10/ 12 1010.5S
MILWAUKEE LAKESH 2230   76     250/  9/ 12   N/A
S MID LAKE BUOY  2150   71 71  260/  2/  4 1010.5F   2/ 5
KENOSHA   LAKESH 2200   78     280/ 11/ 17 1010.2
$$

TC  - TEMPERATURE IN CELSIUS
VSB - VISIBILITY IN STATUTE MILES
WCI - WIND CHILL INDEX
HX  - HEAT INDEX





USA.gov is the U.S. government's official web portal to all federal, state and local government web resources and services.